Pineville, WV

11:13 AM EST on January 17, 2018 (GMT -0500)
Pineville

Weather History for KI16 - January, 2014

Change the Weather History Date:

Friday, January 24, 2014

  Actual Average (KBKW) Record (KBKW)
Temperature  
Mean Temperature 10 °F -  
Max Temperature 23 °F 41 °F 70 °F (1950)
Min Temperature -2 °F 24 °F -18 °F (1963)
Degree Days  
Heating Degree Days 55    
Moisture  
Dew Point 1 °F    
Average Humidity 76    
Maximum Humidity 92    
Minimum Humidity 39    
Precipitation  
Precipitation 0.00 in - - ()
Sea Level Pressure  
Sea Level Pressure 30.39 in    
Wind  
Wind Speed - (North)    
Max Wind Speed -    
Max Gust Speed -    
Visibility 8 miles    
Events Snow    
Averages and records for this station are not official NWS values.
T = Trace of Precipitation, MM = Missing Value Source: NWS Daily Summary

Daily Weather History Graph

Daily Weather History Graph

Search for Another Location

Airport or City:

Trip Planner

Search our weather history database for the weather conditions in past years. The results will help you decide how hot, cold, wet, or windy it might be!

Date:

Astronomy

Jan. 24, 2014 Rise Set
Actual Time 7:35 AM EST 5:41 PM EST
Civil Twilight 7:07 AM EST 6:09 PM EST
Nautical Twilight 6:35 AM EST 6:41 PM EST
Astronomical Twilight 6:04 AM EST 7:12 PM EST
Moon 1:03 AM EST (1/24) 11:58 AM EST (1/24)
Length of Visible Light 11h 01m
Length of Day
10h 05m
Last Quarter, 45% of the Moon is Illuminated
Jan 24
Last Quarter
Jan 30
New
Feb 6
First Quarter
Feb 14
Full
Feb 22
Last Quarter

Hourly Weather History & Observations

Time (EST) Temp. Dew Point Humidity Pressure Visibility Wind Dir Wind Speed Gust Speed Precip Events Conditions
12:15 AM -0.0 °F -2.7 °F 88% 30.51 in 10.0 mi North - - N/A   Clear
12:35 AM -0.6 °F -3.1 °F 89% 30.51 in 10.0 mi North - - N/A   Clear
12:55 AM -1.3 °F -3.8 °F 89% 30.51 in 10.0 mi North - - N/A   Clear
1:15 AM -1.7 °F -3.8 °F 91% 30.51 in 10.0 mi North - - N/A   Clear
1:35 AM -2.2 °F -4.2 °F 91% 30.52 in 10.0 mi North - - N/A   Clear
1:55 AM -2.4 °F -4.5 °F 90% 30.53 in 10.0 mi North - - N/A   Scattered Clouds
2:15 AM -2.0 °F -4.0 °F 91% 30.53 in 10.0 mi North - - N/A   Scattered Clouds
2:35 AM -0.9 °F -3.5 °F 89% 30.55 in 5.0 mi North - - N/A Snow Light Snow
2:55 AM 0.1 °F -2.2 °F 90% 30.56 in 5.0 mi North - - N/A Snow Light Snow
3:15 AM 1.6 °F -0.9 °F 89% 30.57 in 4.0 mi North - - N/A Snow Light Snow
3:35 AM 3.0 °F -0.4 °F 86% 30.56 in 4.0 mi North - - N/A Snow Light Snow
3:55 AM 3.4 °F -0.4 °F 84% 30.56 in 5.0 mi North - - N/A Snow Light Snow
4:15 AM 3.0 °F -0.9 °F 84% 30.57 in 7.0 mi North - - N/A Snow Light Snow
4:35 AM 3.0 °F -0.9 °F 84% 30.56 in 4.0 mi North - - N/A Snow Light Snow
4:55 AM 2.8 °F -0.9 °F 84% 30.56 in 3.0 mi North - - N/A Snow Light Snow
5:15 AM 3.0 °F -0.6 °F 85% 30.56 in 2.5 mi North - - N/A Snow Light Snow
5:35 AM 2.8 °F -0.8 °F 85% 30.56 in 2.5 mi North - - N/A Snow Light Snow
5:55 AM 2.3 °F -1.3 °F 85% 30.56 in 2.5 mi North - - N/A Snow Light Snow
6:15 AM 1.4 °F -1.7 °F 87% 30.56 in 4.0 mi North - - N/A Snow Light Snow
6:35 AM 0.5 °F -2.0 °F 89% 30.56 in 3.0 mi North - - N/A Snow Light Snow
6:55 AM -0.6 °F -3.1 °F 89% 30.56 in 2.5 mi North - - N/A Snow Light Snow
7:15 AM -0.8 °F -3.1 °F 90% 30.56 in 2.0 mi North - - N/A Snow Light Snow
7:35 AM -1.5 °F -3.8 °F 90% 30.56 in 2.0 mi North - - N/A Snow Light Snow
7:55 AM -2.0 °F -4.2 °F 91% 30.55 in 2.0 mi North - - N/A Snow Light Snow
8:15 AM -2.2 °F -4.2 °F 91% 30.54 in 1.2 mi North - - N/A Snow Light Snow
8:35 AM -1.3 °F -3.3 °F 91% 30.53 in 4.0 mi North - - N/A Snow Light Snow
8:55 AM 1.2 °F -1.8 °F 87% 30.53 in 10.0 mi North - - N/A   Clear
9:15 AM 3.2 °F -0.8 °F 84% 30.53 in 10.0 mi North - - N/A   Clear
9:35 AM 4.6 °F 0.1 °F 82% 30.52 in 10.0 mi North - - N/A   Clear
9:55 AM 7.3 °F 1.2 °F 76% 30.52 in 10.0 mi North - - N/A   Clear
10:15 AM 8.2 °F 1.2 °F 73% 30.52 in 10.0 mi North - - N/A Snow Light Snow
10:35 AM 8.8 °F 0.7 °F 70% 30.52 in 10.0 mi North - - N/A   Clear
10:55 AM 9.7 °F 0.3 °F 66% 30.51 in 10.0 mi North - - N/A   Clear
11:15 AM 10.8 °F 1.2 °F 65% 30.51 in 10.0 mi North - - N/A   Clear
11:35 AM 11.8 °F 1.9 °F 65% 30.51 in 10.0 mi North - - N/A   Clear
11:55 AM 13.8 °F 2.7 °F 61% 30.50 in 10.0 mi North - - N/A   Clear
12:15 PM 14.9 °F 2.7 °F 58% 30.49 in 10.0 mi North - - N/A   Clear
12:35 PM 15.6 °F 2.7 °F 57% 30.47 in 10.0 mi North - - N/A   Clear
12:55 PM 17.6 °F 2.5 °F 52% 30.45 in 10.0 mi North - - N/A   Clear
1:15 PM 18.7 °F 3.4 °F 51% 30.44 in 10.0 mi North - - N/A   Clear
1:35 PM 19.4 °F 2.7 °F 48% 30.42 in 10.0 mi North - - N/A   Clear
1:55 PM 20.7 °F 3.6 °F 48% 30.40 in 10.0 mi North - - N/A   Clear
2:15 PM 20.7 °F 1.8 °F 44% 30.38 in 10.0 mi North - - N/A   Clear
2:35 PM 21.9 °F 1.9 °F 42% 30.35 in 10.0 mi North - - N/A   Clear
2:55 PM 22.3 °F 1.2 °F 40% 30.34 in 10.0 mi North - - N/A   Clear
3:15 PM 22.8 °F 1.2 °F 39% 30.33 in 10.0 mi North - - N/A   Clear
3:35 PM 22.8 °F 1.2 °F 39% 30.31 in 10.0 mi North - - N/A   Clear
3:55 PM 22.8 °F 1.8 °F 40% 30.29 in 10.0 mi North - - N/A   Clear
4:15 PM 21.2 °F 1.4 °F 42% 30.28 in 10.0 mi North - - N/A   Clear
4:35 PM 20.8 °F 1.4 °F 43% 30.27 in 10.0 mi North - - N/A   Clear
4:55 PM 20.5 °F 1.8 °F 44% 30.26 in 10.0 mi North - - N/A   Clear
5:15 PM 18.5 °F 5.9 °F 58% 30.25 in 10.0 mi North - - N/A   Clear
5:35 PM 17.4 °F 5.9 °F 61% 30.25 in 10.0 mi North - - N/A   Clear
5:55 PM 15.4 °F 7.2 °F 70% 30.24 in 10.0 mi North - - N/A   Clear
6:15 PM 14.0 °F 7.5 °F 75% 30.23 in 10.0 mi North - - N/A   Clear
6:35 PM 13.6 °F 7.9 °F 78% 30.22 in 10.0 mi North - - N/A   Clear
6:55 PM 13.1 °F 8.6 °F 82% 30.21 in 10.0 mi North - - N/A   Clear
7:15 PM 12.4 °F 8.4 °F 84% 30.19 in 10.0 mi North - - N/A   Clear
7:35 PM 11.7 °F 7.5 °F 83% 30.18 in 10.0 mi North - - N/A   Clear
7:55 PM 10.8 °F 7.5 °F 87% 30.17 in 10.0 mi North - - N/A   Clear
8:15 PM 10.2 °F 7.0 °F 87% 30.14 in 10.0 mi North - - N/A   Clear
8:35 PM 10.8 °F 7.2 °F 85% 30.13 in 10.0 mi North - - N/A   Clear
8:55 PM 10.0 °F 6.6 °F 86% 30.12 in 10.0 mi North - - N/A   Clear
9:15 PM 9.9 °F 6.8 °F 87% 30.11 in 10.0 mi North - - N/A   Clear
9:35 PM 8.6 °F 6.3 °F 90% 30.10 in 10.0 mi North - - N/A   Clear
9:55 PM 7.9 °F 5.7 °F 91% 30.10 in 10.0 mi North - - N/A   Clear
10:15 PM 7.5 °F 5.2 °F 90% 30.08 in 10.0 mi North - - N/A   Clear
10:35 PM 6.4 °F 4.1 °F 90% 30.07 in 10.0 mi North - - N/A   Clear
10:55 PM 5.9 °F 3.9 °F 92% 30.06 in 10.0 mi North - - N/A   Clear
11:15 PM 5.5 °F 3.2 °F 90% 30.04 in 10.0 mi North - - N/A   Clear
11:35 PM 5.4 °F 3.2 °F 91% 30.03 in 10.0 mi North - - N/A   Clear
11:55 PM 5.0 °F 3.0 °F 92% 30.03 in 10.0 mi North - - N/A   Clear